User: anonymous   Login
Location: Baumgartsau
(48.4586°N, 14.0864°E)
Time: 00:45:21
(UTC+00:00)
Language:

BREEZE M DEB (TANK) - Orbit

View from above orbital plane
View from above orbital plane
View from above satellite
View from above satellite

Ground track
Ground track

The orbit data is extracted from the following two-line orbital elements,

1 28359U 04022B   20188.51319592 +.00001805 +00000-0 +28203-3 0  9991
2 28359 049.5256 006.5578 4641200 102.7946 311.3976 06.23647605354693
Epoch (UTC): 06 July 2020 12:19:00
Eccentricity: 0.4641200
inclination: 49.5256°
perigee height: 303 km
apogee height: 11875 km
right ascension of ascending node: 6.5578°
argument of perigee: 102.7946°
revolutions per day: 6.23647605
mean anomaly at epoch: 311.3976°
orbit number at epoch: 35469

The dashed part of the orbit path shows where the satellite is in the earth's shadow,  

DLR